When you browse on this site, cookies collect data to enhance your experience and personalize the content and advertising you see.
Visit our Privacy Policy to learn more. By continuing to use the site, you agree to this use of cookies and data.
  • In Österreich
  • Länderverzeichnis
  • Für 7 Tage
  • Wassertemperatur
  • Satellitenkarten
  • Wetterkarte
  • News
  • Widgets
  • user-avatar
    Anmelden

    Stündliche Wetter San Juan

    Heute, 21 Mai, Dienstag

    Zeit Temperatur Niederschläge Wind Luftdruck Luftfeuchtigkeit
    00:00 +27°C° 0 mm 3 m/S 761 mmHg 86%
    01:00 +27°C° 0 mm 3 m/S 760 mmHg 86%
    02:00 +27°C° 0 mm 3 m/S 760 mmHg 86%
    03:00 +27°C° 0 mm 3 m/S 760 mmHg 86%
    04:00 +27°C° 0 mm 3 m/S 760 mmHg 86%
    05:00 +27°C° 0 mm 3 m/S 760 mmHg 86%
    06:00 +27°C° 0 mm 3 m/S 760 mmHg 83%
    07:00 +28°C° 0 mm 3 m/S 760 mmHg 79%
    08:00 +29°C° 0 mm 3 m/S 760 mmHg 76%
    09:00 +30°C° 0 mm 4 m/S 761 mmHg 70%
    10:00 +32°C° 0 mm 4 m/S 761 mmHg 64%
    11:00 +34°C° 0 mm 4 m/S 761 mmHg 58%
    12:00 +34°C° 0 mm 5 m/S 761 mmHg 58%
    13:00 +34°C° 0 mm 5 m/S 761 mmHg 57%
    14:00 +34°C° 0 mm 6 m/S 760 mmHg 56%
    15:00 +34°C° 0 mm 6 m/S 760 mmHg 60%
    16:00 +33°C° 0 mm 6 m/S 760 mmHg 64%
    17:00 +32°C° 0 mm 6 m/S 760 mmHg 68%
    18:00 +30°C° 0 mm 5 m/S 760 mmHg 73%
    19:00 +29°C° 0 mm 5 m/S 760 mmHg 77%
    20:00 +28°C° 0 mm 5 m/S 760 mmHg 82%
    21:00 +28°C° 0 mm 4 m/S 760 mmHg 83%
    22:00 +28°C° 0 mm 4 m/S 761 mmHg 84%
    23:00 +27°C° 0 mm 4 m/S 761 mmHg 85%

    Morgen, 22 Mai, Mittwoch

    Zeit Temperatur Niederschläge Wind Luftdruck Luftfeuchtigkeit
    00:00 +27°C° 0 mm 4 m/S 761 mmHg 85%
    01:00 +27°C° 0 mm 4 m/S 761 mmHg 86%
    02:00 +27°C° 0 mm 3 m/S 760 mmHg 86%
    03:00 +27°C° 0 mm 3 m/S 760 mmHg 86%
    04:00 +27°C° 0 mm 3 m/S 760 mmHg 87%
    05:00 +27°C° 0 mm 3 m/S 760 mmHg 87%
    06:00 +27°C° 0 mm 3 m/S 760 mmHg 83%
    07:00 +28°C° 0 mm 3 m/S 760 mmHg 80%
    08:00 +29°C° 0 mm 4 m/S 761 mmHg 76%
    09:00 +30°C° 0 mm 4 m/S 761 mmHg 72%
    10:00 +32°C° 0 mm 4 m/S 761 mmHg 67%
    11:00 +33°C° 0 mm 4 m/S 761 mmHg 63%
    12:00 +33°C° 0 mm 4 m/S 761 mmHg 63%
    13:00 +33°C° 0 mm 4 m/S 761 mmHg 63%
    14:00 +33°C° 0 mm 4 m/S 760 mmHg 63%
    15:00 +33°C° 0.1 mm 4 m/S 760 mmHg 66%
    16:00 +32°C° 0.1 mm 4 m/S 760 mmHg 68%
    17:00 +32°C° 0.1 mm 4 m/S 759 mmHg 71%
    18:00 +30°C° 0 mm 4 m/S 759 mmHg 74%
    19:00 +29°C° 0 mm 4 m/S 760 mmHg 78%
    20:00 +28°C° 0 mm 4 m/S 760 mmHg 82%
    21:00 +28°C° 0 mm 3 m/S 760 mmHg 83%
    22:00 +28°C° 0 mm 3 m/S 761 mmHg 84%
    23:00 +27°C° 0 mm 3 m/S 761 mmHg 86%

    übermorgen, 23 Mai, Donnerstag

    Zeit Temperatur Niederschläge Wind Luftdruck Luftfeuchtigkeit
    00:00 +27°C° 0 mm 3 m/S 760 mmHg 86%
    01:00 +27°C° 0 mm 3 m/S 760 mmHg 86%
    02:00 +27°C° 0 mm 3 m/S 760 mmHg 87%
    03:00 +27°C° 0 mm 2 m/S 759 mmHg 87%
    04:00 +27°C° 0 mm 2 m/S 759 mmHg 86%
    05:00 +27°C° 0 mm 2 m/S 759 mmHg 86%
    06:00 +27°C° 0 mm 2 m/S 759 mmHg 83%
    07:00 +28°C° 0 mm 3 m/S 760 mmHg 80%
    08:00 +29°C° 0 mm 3 m/S 760 mmHg 77%
    09:00 +30°C° 0 mm 3 m/S 760 mmHg 71%
    10:00 +31°C° 0 mm 3 m/S 760 mmHg 65%
    11:00 +33°C° 0 mm 3 m/S 761 mmHg 60%
    12:00 +33°C° 0.6 mm 4 m/S 760 mmHg 62%
    13:00 +33°C° 0.6 mm 4 m/S 760 mmHg 65%
    14:00 +32°C° 0.6 mm 4 m/S 760 mmHg 67%
    15:00 +32°C° 1.5 mm 4 m/S 759 mmHg 71%
    16:00 +30°C° 1.5 mm 4 m/S 759 mmHg 74%
    17:00 +29°C° 1.5 mm 3 m/S 758 mmHg 77%
    18:00 +29°C° 3 mm 3 m/S 759 mmHg 79%
    19:00 +28°C° 3 mm 3 m/S 759 mmHg 80%
    20:00 +28°C° 3 mm 3 m/S 760 mmHg 82%
    21:00 +27°C° 0.7 mm 3 m/S 760 mmHg 83%
    22:00 +27°C° 0.7 mm 3 m/S 760 mmHg 83%
    23:00 +27°C° 0.7 mm 3 m/S 761 mmHg 84%

    24 Mai, Freitag

    Zeit Temperatur Niederschläge Wind Luftdruck Luftfeuchtigkeit
    00:00 +27°C° 0.4 mm 3 m/S 760 mmHg 84%
    01:00 +27°C° 0.4 mm 3 m/S 760 mmHg 85%
    02:00 +26°C° 0.4 mm 3 m/S 759 mmHg 86%
    03:00 +26°C° 0.7 mm 2 m/S 759 mmHg 86%
    04:00 +26°C° 0.7 mm 2 m/S 759 mmHg 87%
    05:00 +26°C° 0.7 mm 2 m/S 759 mmHg 88%
    06:00 +27°C° 1 mm 2 m/S 760 mmHg 85%
    07:00 +28°C° 1 mm 3 m/S 760 mmHg 82%
    08:00 +29°C° 1 mm 3 m/S 760 mmHg 79%
    09:00 +29°C° 0.5 mm 3 m/S 761 mmHg 76%
    10:00 +30°C° 0.5 mm 4 m/S 761 mmHg 73%
    11:00 +32°C° 0.5 mm 4 m/S 761 mmHg 70%
    12:00 +32°C° 1 mm 4 m/S 761 mmHg 71%
    13:00 +32°C° 1 mm 4 m/S 760 mmHg 71%
    14:00 +32°C° 1 mm 4 m/S 760 mmHg 71%
    15:00 +32°C° 1.4 mm 4 m/S 760 mmHg 73%
    16:00 +30°C° 1.4 mm 4 m/S 759 mmHg 74%
    17:00 +30°C° 1.4 mm 4 m/S 759 mmHg 76%
    18:00 +29°C° 0.3 mm 3 m/S 760 mmHg 78%
    19:00 +28°C° 0.3 mm 3 m/S 760 mmHg 81%
    20:00 +27°C° 0.3 mm 3 m/S 760 mmHg 84%
    21:00 +27°C° 0 mm 3 m/S 760 mmHg 84%
    22:00 +27°C° 0 mm 3 m/S 761 mmHg 85%
    23:00 +27°C° 0 mm 3 m/S 761 mmHg 86%

    25 Mai, Samstag

    Zeit Temperatur Niederschläge Wind Luftdruck Luftfeuchtigkeit
    00:00 +27°C° 0 mm 3 m/S 760 mmHg 86%
    01:00 +27°C° 0 mm 3 m/S 760 mmHg 87%
    02:00 +27°C° 0 mm 2 m/S 760 mmHg 87%
    03:00 +27°C° 0 mm 2 m/S 759 mmHg 87%
    04:00 +27°C° 0 mm 3 m/S 759 mmHg 87%
    05:00 +26°C° 0 mm 3 m/S 759 mmHg 87%
    06:00 +27°C° 0.1 mm 3 m/S 760 mmHg 85%
    07:00 +28°C° 0.1 mm 3 m/S 760 mmHg 82%
    08:00 +29°C° 0.1 mm 3 m/S 761 mmHg 80%
    09:00 +29°C° 0.1 mm 4 m/S 761 mmHg 77%
    10:00 +30°C° 0.1 mm 4 m/S 761 mmHg 73%
    11:00 +32°C° 0.1 mm 4 m/S 761 mmHg 70%
    12:00 +32°C° 0.1 mm 4 m/S 761 mmHg 69%
    13:00 +32°C° 0.1 mm 4 m/S 760 mmHg 68%
    14:00 +32°C° 0.1 mm 5 m/S 760 mmHg 66%
    15:00 +32°C° 0.1 mm 5 m/S 760 mmHg 68%
    16:00 +32°C° 0.1 mm 5 m/S 760 mmHg 70%
    17:00 +30°C° 0.1 mm 5 m/S 759 mmHg 71%
    18:00 +29°C° 0 mm 4 m/S 760 mmHg 75%
    19:00 +29°C° 0 mm 4 m/S 760 mmHg 80%
    20:00 +28°C° 0 mm 4 m/S 761 mmHg 84%
    21:00 +27°C° 0 mm 4 m/S 761 mmHg 85%
    22:00 +27°C° 0 mm 4 m/S 761 mmHg 86%
    23:00 +27°C° 0 mm 4 m/S 761 mmHg 86%

    26 Mai, Sonntag

    Zeit Temperatur Niederschläge Wind Luftdruck Luftfeuchtigkeit
    00:00 +27°C° 0 mm 4 m/S 761 mmHg 87%
    01:00 +27°C° 0 mm 4 m/S 760 mmHg 87%
    02:00 +27°C° 0 mm 4 m/S 760 mmHg 88%
    03:00 +27°C° 0.2 mm 4 m/S 760 mmHg 88%
    04:00 +27°C° 0.2 mm 4 m/S 760 mmHg 87%
    05:00 +27°C° 0.2 mm 3 m/S 760 mmHg 87%
    06:00 +27°C° 0.3 mm 4 m/S 760 mmHg 86%
    07:00 +28°C° 0.3 mm 4 m/S 761 mmHg 84%
    08:00 +28°C° 0.3 mm 4 m/S 761 mmHg 82%
    09:00 +28°C° 0.2 mm 4 m/S 761 mmHg 82%
    10:00 +28°C° 0.2 mm 4 m/S 761 mmHg 82%
    11:00 +28°C° 0.2 mm 4 m/S 761 mmHg 82%
    12:00 +28°C° 0.1 mm 3 m/S 761 mmHg 81%
    13:00 +29°C° 0.1 mm 3 m/S 761 mmHg 81%
    14:00 +29°C° 0.1 mm 3 m/S 760 mmHg 80%
    15:00 +29°C° 0.4 mm 3 m/S 760 mmHg 81%
    16:00 +28°C° 0.4 mm 3 m/S 760 mmHg 81%
    17:00 +28°C° 0.4 mm 3 m/S 760 mmHg 82%
    18:00 +28°C° 0.1 mm 3 m/S 760 mmHg 84%
    19:00 +27°C° 0.1 mm 3 m/S 760 mmHg 85%
    20:00 +27°C° 0.1 mm 4 m/S 761 mmHg 87%
    21:00 +27°C° 0 mm 3 m/S 761 mmHg 87%
    22:00 +27°C° 0 mm 3 m/S 761 mmHg 88%
    23:00 +27°C° 0 mm 3 m/S 761 mmHg 88%
    Mehr zeigen